Time,TemperatureF,DewpointF,PressureIn,WindDirection,WindDirectionDegrees,WindSpeedMPH,WindSpeedGustMPH,Humidity,HourlyPrecipIn,Conditions,Clouds,dailyrainin,SoftwareType,DateUTC
2013-11-04 00:23:00,53.0,39.0,29.82,NW,315,0.0,2.0,59,0.00,,,0.00,,2013-11-04 06:23:00,
2013-11-04 00:42:00,53.0,39.0,29.83,West,270,0.0,1.0,60,0.00,,,0.00,,2013-11-04 06:42:00,
2013-11-04 00:52:00,53.0,39.0,29.83,NW,315,0.0,1.0,60,0.00,,,0.00,,2013-11-04 06:52:00,
2013-11-04 01:01:00,53.0,39.0,29.83,NW,315,0.0,1.0,60,0.00,,,0.00,,2013-11-04 07:01:00,
2013-11-04 01:11:00,53.0,39.0,29.83,NW,315,0.0,1.0,60,0.00,,,0.00,,2013-11-04 07:11:00,
2013-11-04 01:22:00,53.0,40.0,29.83,NW,315,0.0,1.0,61,0.00,,,0.00,,2013-11-04 07:22:00,
2013-11-04 01:42:00,52.0,39.0,29.85,NW,315,0.0,0.0,61,0.00,,,0.00,,2013-11-04 07:42:00,
2013-11-04 01:52:00,52.0,39.0,29.85,NW,315,0.0,0.0,61,0.00,,,0.00,,2013-11-04 07:52:00,
2013-11-04 02:12:00,52.0,40.0,29.85,West,270,0.0,0.0,63,0.00,,,0.00,,2013-11-04 08:12:00,
2013-11-04 02:21:00,52.0,40.0,29.86,North,360,0.0,0.0,64,0.00,,,0.00,,2013-11-04 08:21:00,
2013-11-04 02:32:00,52.0,40.0,29.86,North,360,0.0,0.0,64,0.00,,,0.00,,2013-11-04 08:32:00,
2013-11-04 02:42:00,52.0,40.0,29.86,North,360,0.0,0.0,64,0.00,,,0.00,,2013-11-04 08:42:00,
2013-11-04 02:52:00,52.0,41.0,29.86,NW,315,0.0,0.0,65,0.00,,,0.00,,2013-11-04 08:52:00,
2013-11-04 03:12:00,52.0,41.0,29.86,NW,315,0.0,0.0,65,0.00,,,0.00,,2013-11-04 09:12:00,
2013-11-04 03:21:00,52.0,41.0,29.87,NW,315,0.0,0.0,65,0.00,,,0.00,,2013-11-04 09:21:00,
2013-11-04 03:43:00,52.0,41.0,29.87,NW,315,0.0,0.0,66,0.00,,,0.00,,2013-11-04 09:43:00,
2013-11-04 03:53:00,52.0,41.0,29.87,NW,315,0.0,0.0,66,0.00,,,0.00,,2013-11-04 09:53:00,
2013-11-04 04:03:00,52.0,41.0,29.87,NW,315,0.0,0.0,66,0.00,,,0.00,,2013-11-04 10:03:00,
2013-11-04 04:23:00,51.0,41.0,29.86,North,360,0.0,0.0,68,0.00,,,0.00,,2013-11-04 10:23:00,
2013-11-04 04:42:00,51.0,42.0,29.85,NW,315,0.0,1.0,70,0.00,,,0.00,,2013-11-04 10:42:00,
2013-11-04 04:52:00,51.0,42.0,29.85,NW,315,0.0,1.0,70,0.00,,,0.00,,2013-11-04 10:52:00,
2013-11-04 05:12:00,51.0,42.0,29.84,NW,315,0.0,1.0,70,0.00,,,0.00,,2013-11-04 11:12:00,
2013-11-04 05:22:00,51.0,41.0,29.85,NW,315,0.0,0.0,69,0.00,,,0.00,,2013-11-04 11:22:00,
2013-11-04 05:32:00,51.0,41.0,29.85,NW,315,0.0,0.0,69,0.00,,,0.00,,2013-11-04 11:32:00,
2013-11-04 05:42:00,51.0,41.0,29.85,NW,315,0.0,0.0,69,0.00,,,0.00,,2013-11-04 11:42:00,
2013-11-04 05:52:00,51.0,41.0,29.86,NW,315,0.0,0.0,69,0.00,,,0.00,,2013-11-04 11:52:00,
2013-11-04 06:12:00,51.0,42.0,29.86,West,270,0.0,0.0,70,0.00,,,0.00,,2013-11-04 12:12:00,
2013-11-04 06:22:00,51.0,42.0,29.86,West,270,0.0,0.0,70,0.00,,,0.00,,2013-11-04 12:22:00,
2013-11-04 06:42:00,51.0,42.0,29.86,NW,315,0.0,1.0,72,0.00,,,0.00,,2013-11-04 12:42:00,
2013-11-04 06:52:00,51.0,42.0,29.85,North,360,0.0,2.0,72,0.00,,,0.00,,2013-11-04 12:52:00,
2013-11-04 07:11:00,51.0,42.0,29.85,North,360,0.0,2.0,72,0.00,,,0.00,,2013-11-04 13:11:00,
2013-11-04 07:21:00,51.0,42.0,29.85,North,360,0.0,2.0,72,0.00,,,0.00,,2013-11-04 13:21:00,
2013-11-04 07:42:00,52.0,43.0,29.88,North,360,0.0,1.0,70,0.00,,,0.00,,2013-11-04 13:42:00,
2013-11-04 07:52:00,52.0,42.0,29.89,NW,315,0.0,0.0,69,0.00,,,0.00,,2013-11-04 13:52:00,
2013-11-04 08:11:00,53.0,43.0,29.90,North,360,0.0,1.0,69,0.00,,,0.00,,2013-11-04 14:11:00,
2013-11-04 08:22:00,53.0,43.0,29.89,North,360,0.0,1.0,69,0.00,,,0.00,,2013-11-04 14:22:00,
2013-11-04 08:32:00,53.0,43.0,29.89,North,360,0.0,1.0,69,0.00,,,0.00,,2013-11-04 14:32:00,
2013-11-04 08:42:00,53.0,43.0,29.89,North,360,0.0,1.0,69,0.00,,,0.00,,2013-11-04 14:42:00,
2013-11-04 08:52:00,53.0,43.0,29.89,North,360,0.0,1.0,69,0.00,,,0.00,,2013-11-04 14:52:00,
2013-11-04 09:02:00,53.0,43.0,29.89,North,360,0.0,1.0,69,0.00,,,0.00,,2013-11-04 15:02:00,
2013-11-04 09:22:00,53.0,44.0,29.92,NW,315,0.0,1.0,71,0.00,,,0.00,,2013-11-04 15:22:00,
2013-11-04 09:42:00,53.0,45.0,29.91,North,360,0.0,1.0,73,0.00,,,0.00,,2013-11-04 15:42:00,
2013-11-04 09:52:00,53.0,45.0,29.93,NW,315,0.0,0.0,73,0.00,,,0.00,,2013-11-04 15:52:00,
2013-11-04 10:03:00,53.0,45.0,29.93,NW,315,0.0,0.0,73,0.00,,,0.00,,2013-11-04 16:03:00,
2013-11-04 10:12:00,53.0,45.0,29.93,NW,315,0.0,0.0,73,0.00,,,0.00,,2013-11-04 16:12:00,
2013-11-04 10:23:00,53.0,46.0,29.91,NW,315,0.0,1.0,76,0.00,,,0.00,,2013-11-04 16:23:00,
2013-11-04 10:43:00,54.0,46.0,29.92,NW,315,0.0,1.0,74,0.00,,,0.00,,2013-11-04 16:43:00,
2013-11-04 10:53:00,54.0,46.0,29.92,NW,315,0.0,1.0,74,0.00,,,0.00,,2013-11-04 16:53:00,
2013-11-04 11:12:00,56.0,47.0,29.92,North,360,0.0,1.0,71,0.00,,,0.00,,2013-11-04 17:12:00,
2013-11-04 11:22:00,56.0,46.0,29.92,North,360,0.0,2.0,69,0.00,,,0.00,,2013-11-04 17:22:00,
2013-11-04 11:33:00,56.0,46.0,29.92,North,360,0.0,2.0,69,0.00,,,0.00,,2013-11-04 17:33:00,
2013-11-04 11:42:00,56.0,46.0,29.92,North,360,0.0,2.0,69,0.00,,,0.00,,2013-11-04 17:42:00,
2013-11-04 11:53:00,56.0,46.0,29.91,North,360,0.0,1.0,69,0.00,,,0.00,,2013-11-04 17:53:00,
2013-11-04 12:12:00,56.0,46.0,29.91,NW,315,0.0,2.0,70,0.00,,,0.00,,2013-11-04 18:12:00,
2013-11-04 12:23:00,56.0,46.0,29.91,NW,315,0.0,2.0,70,0.00,,,0.00,,2013-11-04 18:23:00,
2013-11-04 12:32:00,56.0,46.0,29.91,NW,315,0.0,2.0,70,0.00,,,0.00,,2013-11-04 18:32:00,
2013-11-04 12:42:00,56.0,46.0,29.91,NW,315,0.0,2.0,70,0.00,,,0.00,,2013-11-04 18:42:00,
2013-11-04 12:52:00,56.0,48.0,29.89,North,360,0.0,2.0,74,0.00,,,0.00,,2013-11-04 18:52:00,
2013-11-04 13:01:00,56.0,48.0,29.89,North,360,0.0,2.0,74,0.00,,,0.00,,2013-11-04 19:01:00,
2013-11-04 13:12:00,56.0,48.0,29.89,North,360,0.0,2.0,74,0.00,,,0.00,,2013-11-04 19:12:00,
2013-11-04 13:22:00,56.0,49.0,29.88,North,360,0.0,0.0,76,0.00,,,0.00,,2013-11-04 19:22:00,
2013-11-04 13:34:00,56.0,49.0,29.88,North,360,0.0,0.0,76,0.00,,,0.00,,2013-11-04 19:34:00,
2013-11-04 13:42:00,56.0,49.0,29.88,North,360,0.0,0.0,76,0.00,,,0.00,,2013-11-04 19:42:00,
2013-11-04 13:52:00,56.0,50.0,29.87,NW,315,0.0,0.0,80,0.01,,,0.01,,2013-11-04 19:52:00,
2013-11-04 14:11:00,56.0,51.0,29.87,NW,315,0.0,0.0,83,0.02,,,0.02,,2013-11-04 20:11:00,
2013-11-04 14:22:00,56.0,51.0,29.87,NW,315,0.0,0.0,83,0.02,,,0.02,,2013-11-04 20:22:00,
2013-11-04 14:42:00,56.0,52.0,29.86,NW,315,0.0,0.0,85,0.06,,,0.06,,2013-11-04 20:42:00,
2013-11-04 14:52:00,56.0,52.0,29.86,North,360,0.0,0.0,87,0.06,,,0.07,,2013-11-04 20:52:00,
2013-11-04 15:22:00,56.0,53.0,29.85,West,270,0.0,1.0,90,0.06,,,0.09,,2013-11-04 21:22:00,
2013-11-04 15:45:00,56.0,53.0,29.85,North,360,0.0,0.0,90,0.04,,,0.09,,2013-11-04 21:45:00,
2013-11-04 15:54:00,56.0,53.0,29.85,North,360,0.0,0.0,90,0.04,,,0.09,,2013-11-04 21:54:00,
2013-11-04 16:04:00,56.0,53.0,29.85,North,360,0.0,0.0,90,0.04,,,0.09,,2013-11-04 22:04:00,
2013-11-04 16:14:00,56.0,53.0,29.85,North,360,0.0,0.0,90,0.04,,,0.09,,2013-11-04 22:14:00,
2013-11-04 16:23:00,56.0,53.0,29.87,NW,315,0.0,1.0,91,0.00,,,0.09,,2013-11-04 22:23:00,
2013-11-04 16:43:00,56.0,54.0,29.88,West,270,0.0,1.0,92,0.00,,,0.09,,2013-11-04 22:43:00,
2013-11-04 16:53:00,56.0,54.0,29.87,NW,315,0.0,1.0,92,0.01,,,0.11,,2013-11-04 22:53:00,
2013-11-04 17:13:00,56.0,54.0,29.86,West,270,0.0,1.0,93,0.01,,,0.11,,2013-11-04 23:13:00,
2013-11-04 17:22:00,56.0,54.0,29.86,NW,315,0.0,0.0,93,0.02,,,0.12,,2013-11-04 23:22:00,
2013-11-04 17:33:00,56.0,54.0,29.86,NW,315,0.0,0.0,93,0.02,,,0.12,,2013-11-04 23:33:00,
2013-11-04 17:43:00,56.0,54.0,29.86,NW,315,0.0,0.0,93,0.02,,,0.12,,2013-11-04 23:43:00,
2013-11-04 17:53:00,56.0,54.0,29.87,NW,315,0.0,0.0,94,0.02,,,0.13,,2013-11-04 23:53:00,
2013-11-04 18:12:00,56.0,54.0,29.87,NW,315,0.0,0.0,94,0.02,,,0.13,,2013-11-05 00:12:00,
2013-11-04 18:22:00,56.0,54.0,29.87,NW,315,0.0,0.0,94,0.02,,,0.13,,2013-11-05 00:22:00,
2013-11-04 18:42:00,56.0,55.0,29.88,NW,315,0.0,1.0,95,0.04,,,0.15,,2013-11-05 00:42:00,
2013-11-04 18:52:00,56.0,55.0,29.89,NW,315,0.0,1.0,95,0.04,,,0.17,,2013-11-05 00:52:00,
2013-11-04 19:11:00,56.0,55.0,29.89,North,360,0.0,2.0,96,0.04,,,0.17,,2013-11-05 01:11:00,
2013-11-04 19:21:00,56.0,55.0,29.90,North,360,0.0,1.0,96,0.02,,,0.17,,2013-11-05 01:21:00,
2013-11-04 19:42:00,56.0,55.0,29.90,West,270,0.0,0.0,97,0.01,,,0.17,,2013-11-05 01:42:00,
2013-11-04 19:52:00,56.0,55.0,29.90,West,270,0.0,0.0,97,0.01,,,0.17,,2013-11-05 01:52:00,
2013-11-04 20:11:00,56.0,55.0,29.90,NW,315,0.0,1.0,96,0.00,,,0.17,,2013-11-05 02:11:00,
2013-11-04 20:22:00,56.0,55.0,29.90,NW,315,0.0,0.0,97,0.00,,,0.17,,2013-11-05 02:22:00,
2013-11-04 20:42:00,56.0,55.0,29.91,NW,315,0.0,0.0,96,0.00,,,0.17,,2013-11-05 02:42:00,
2013-11-04 20:52:00,56.0,55.0,29.90,NW,315,0.0,0.0,97,0.01,,,0.18,,2013-11-05 02:52:00,
2013-11-04 21:12:00,56.0,55.0,29.91,NW,315,0.0,0.0,97,0.01,,,0.18,,2013-11-05 03:12:00,
2013-11-04 21:22:00,56.0,55.0,29.91,NW,315,0.0,0.0,97,0.01,,,0.18,,2013-11-05 03:22:00,
2013-11-04 21:44:00,56.0,55.0,29.91,NW,315,0.0,0.0,97,0.01,,,0.18,,2013-11-05 03:44:00,
2013-11-04 21:54:00,56.0,55.0,29.91,NW,315,0.0,0.0,97,0.01,,,0.19,,2013-11-05 03:54:00,
2013-11-04 22:13:00,56.0,55.0,29.91,North,360,0.0,0.0,97,0.01,,,0.19,,2013-11-05 04:13:00,
2013-11-04 22:23:00,56.0,55.0,29.91,West,270,0.0,0.0,97,0.01,,,0.19,,2013-11-05 04:23:00,
2013-11-04 22:34:00,56.0,55.0,29.91,West,270,0.0,0.0,97,0.01,,,0.19,,2013-11-05 04:34:00,
2013-11-04 22:43:00,56.0,55.0,29.91,West,270,0.0,0.0,97,0.01,,,0.19,,2013-11-05 04:43:00,
2013-11-04 22:53:00,56.0,56.0,29.91,NW,315,0.0,1.0,100,0.01,,,0.20,,2013-11-05 04:53:00,
2013-11-04 23:13:00,56.0,56.0,29.90,NW,315,0.0,1.0,100,0.01,,,0.20,,2013-11-05 05:13:00,
2013-11-04 23:23:00,56.0,56.0,29.91,NW,315,0.0,0.0,100,0.01,,,0.21,,2013-11-05 05:23:00,
2013-11-04 23:34:00,56.0,56.0,29.91,NW,315,0.0,0.0,100,0.01,,,0.21,,2013-11-05 05:34:00,
2013-11-04 23:43:00,56.0,56.0,29.91,NW,315,0.0,0.0,100,0.01,,,0.21,,2013-11-05 05:43:00,
2013-11-04 23:54:00,56.0,56.0,29.90,North,360,0.0,0.0,100,0.01,,,0.21,,2013-11-05 05:54:00,